contact:dominique.lefevre@mio.osupytheas.fr, maurice.libes@osupytheas.fr, didier.mallarino@osupytheas.fr
Project:EMSO http://www.emso-fr.org/EMSO-France
Depth: 2436.0 m
Title:EMSO Ligure Ouest : Data MII capteur AQUADOPP
Date,Latitude,Longitude,X_East,Y_North,Z_Up,Amplitude_X,Amplitude_Y,Amplitude_Z,Batterie,SoundSpeed,Heading,Pitch,Roll,Pressure,TIS,Speed,Direction
, degrees North, degrees East, m.s-1, m.s-1,m.s-1, 1, 1, 1, Volt, m.s-1, degree, degree, degree, dbar, degree_C, m.s-1, degree
2022-01-14T00:04:03,42.805,6.029,0.058,-0.007,0.04,102.0,105.0,101.0,13.4,1505.2,324.7,-0.7,1.8,2470.667,13.28,0.058,96.9
2022-01-14T00:07:03,42.805,6.029,0.066,-0.018,0.026,102.0,106.0,101.0,13.4,1505.2,328.5,-0.8,1.8,2470.624,13.28,0.068,105.3
2022-01-14T00:10:03,42.805,6.029,0.061,-0.002,0.004,103.0,105.0,102.0,13.3,1505.2,330.2,-0.7,1.8,2470.599,13.28,0.061,91.9
2022-01-14T00:13:03,42.805,6.029,0.061,-0.014,0.016,103.0,104.0,101.0,13.4,1505.2,329.0,-0.7,1.8,2470.629,13.28,0.062,102.9
2022-01-14T00:16:03,42.805,6.029,0.076,-0.01,0.027,103.0,103.0,102.0,13.4,1505.2,324.0,-0.8,1.9,2470.6,13.28,0.076,97.5
2022-01-14T00:19:03,42.805,6.029,0.06,-0.014,0.016,102.0,105.0,102.0,13.3,1505.2,324.4,-0.7,1.8,2470.636,13.28,0.061,103.1
2022-01-14T00:22:03,42.805,6.029,0.04,-0.013,0.01,102.0,104.0,101.0,13.4,1505.2,329.6,-0.8,1.8,2470.596,13.28,0.042,108.0
2022-01-14T00:25:03,42.805,6.029,0.071,-0.011,0.022,103.0,104.0,102.0,13.3,1505.2,326.7,-0.8,1.8,2470.625,13.28,0.071,98.8
2022-01-14T00:28:03,42.805,6.029,0.073,-0.036,-0.006,103.0,103.0,102.0,13.4,1505.2,328.6,-0.8,1.8,2470.601,13.28,0.081,116.2
2022-01-14T00:31:03,42.805,6.029,0.057,-0.003,0.002,102.0,104.0,101.0,13.4,1505.2,324.7,-0.7,1.8,2470.627,13.28,0.057,93.0
2022-01-14T00:34:03,42.805,6.029,0.091,-0.004,0.027,103.0,104.0,102.0,13.4,1505.2,331.2,-0.7,1.8,2470.585,13.28,0.091,92.5
2022-01-14T00:37:03,42.805,6.029,0.085,-0.019,-0.005,102.0,104.0,101.0,13.4,1505.2,326.6,-0.7,1.8,2470.643,13.28,0.087,102.6
2022-01-14T00:40:03,42.805,6.029,0.06,-0.022,-0.01,103.0,101.0,102.0,13.4,1505.2,326.8,-0.8,1.8,2470.621,13.28,0.063,110.1
2022-01-14T00:43:03,42.805,6.029,0.084,-0.008,-0.007,102.0,105.0,102.0,13.4,1505.2,325.1,-0.7,1.8,2470.633,13.28,0.084,95.4
2022-01-14T00:46:03,42.805,6.029,0.085,-0.012,-0.009,103.0,104.0,102.0,13.3,1505.2,329.1,-0.8,1.9,2470.61,13.28,0.085,98.0
2022-01-14T00:49:03,42.805,6.029,0.057,-0.002,0.029,105.0,103.0,102.0,13.4,1505.2,329.4,-0.8,1.8,2470.581,13.28,0.057,92.0
2022-01-14T00:52:03,42.805,6.029,0.064,-0.018,0.013,102.0,102.0,102.0,13.4,1505.2,326.5,-0.7,1.8,2470.594,13.28,0.066,105.7
2022-01-14T00:55:03,42.805,6.029,0.066,-0.018,0.037,104.0,103.0,101.0,13.3,1505.2,329.7,-0.7,1.8,2470.612,13.28,0.068,105.3
2022-01-14T00:58:03,42.805,6.029,0.077,-0.01,0.023,105.0,104.0,101.0,13.4,1505.2,328.0,-0.8,1.8,2470.622,13.28,0.077,97.4
2022-01-14T01:04:03,42.805,6.029,0.043,-0.034,-0.012,105.0,104.0,101.0,13.4,1505.2,332.0,-0.8,1.8,2470.624,13.28,0.054,128.3
2022-01-14T01:07:03,42.805,6.029,0.05,-0.033,-0.004,103.0,103.0,101.0,13.4,1505.2,324.6,-0.8,1.9,2470.624,13.28,0.059,123.4
2022-01-14T01:10:03,42.805,6.029,0.066,-0.013,0.01,103.0,103.0,101.0,13.4,1505.2,328.9,-0.8,1.8,2470.599,13.28,0.067,101.1
2022-01-14T01:13:03,42.805,6.029,0.049,-0.007,0.019,103.0,103.0,102.0,13.4,1505.2,326.6,-0.8,1.8,2470.618,13.28,0.049,98.1
2022-01-14T01:16:03,42.805,6.029,0.062,-0.019,0.007,102.0,103.0,101.0,13.4,1505.2,328.0,-0.8,1.8,2470.639,13.28,0.064,107.0
2022-01-14T01:19:03,42.805,6.029,0.078,-0.012,-0.003,102.0,103.0,101.0,13.4,1505.2,329.8,-0.7,1.8,2470.63,13.28,0.078,98.7
2022-01-14T01:22:03,42.805,6.029,0.062,-0.027,0.0,102.0,103.0,101.0,13.3,1505.2,327.3,-0.8,1.8,2470.627,13.28,0.067,113.5
2022-01-14T01:25:03,42.805,6.029,0.087,-0.005,0.02,102.0,104.0,100.0,13.4,1505.2,325.9,-0.8,1.8,2470.629,13.28,0.087,93.3
2022-01-14T01:28:03,42.805,6.029,0.055,-0.03,-0.009,103.0,103.0,101.0,13.4,1505.2,328.9,-0.8,1.8,2470.622,13.28,0.062,118.6
2022-01-14T01:31:03,42.805,6.029,0.035,-0.028,0.0,103.0,102.0,102.0,13.3,1505.2,331.9,-0.8,1.8,2470.6,13.28,0.044,128.7
2022-01-14T01:34:03,42.805,6.029,0.079,-0.041,-0.034,103.0,102.0,101.0,13.4,1505.2,325.7,-0.8,1.8,2470.603,13.28,0.088,117.4
2022-01-14T01:37:03,42.805,6.029,0.053,-0.031,0.012,103.0,103.0,101.0,13.4,1505.2,326.3,-0.7,1.8,2470.577,13.28,0.061,120.3
2022-01-14T01:40:03,42.805,6.029,0.057,-0.016,0.024,104.0,104.0,101.0,13.4,1505.2,326.9,-0.8,1.8,2470.609,13.28,0.059,105.7
2022-01-14T01:43:03,42.805,6.029,0.089,-0.012,0.017,104.0,102.0,102.0,13.4,1505.2,324.6,-0.7,1.8,2470.605,13.28,0.089,97.7
2022-01-14T01:46:03,42.805,6.029,0.088,-0.011,0.045,103.0,103.0,101.0,13.4,1505.2,327.8,-0.7,1.8,2470.575,13.28,0.088,97.1
2022-01-14T01:49:03,42.805,6.029,0.098,-0.026,0.013,102.0,103.0,101.0,13.4,1505.2,329.2,-0.7,1.8,2470.656,13.28,0.101,104.9
2022-01-14T01:52:03,42.805,6.029,0.067,-0.026,0.013,103.0,103.0,100.0,13.4,1505.2,327.4,-0.7,1.8,2470.634,13.28,0.071,111.2
2022-01-14T01:55:03,42.805,6.029,0.057,-0.039,-0.001,103.0,103.0,101.0,13.4,1505.2,328.5,-0.8,1.8,2470.611,13.28,0.069,124.4
2022-01-14T01:58:03,42.805,6.029,0.054,-0.016,-0.005,102.0,102.0,101.0,13.4,1505.2,327.8,-0.8,1.8,2470.606,13.28,0.056,106.5
2022-01-14T02:04:03,42.805,6.029,0.048,-0.032,0.015,103.0,103.0,101.0,13.3,1505.2,326.6,-0.8,1.8,2470.632,13.28,0.057,123.7
2022-01-14T02:07:03,42.805,6.029,0.045,-0.05,0.008,102.0,104.0,101.0,13.4,1505.2,331.1,-0.8,1.8,2470.627,13.28,0.067,138.0
2022-01-14T02:10:03,42.805,6.029,0.061,-0.021,-0.001,104.0,103.0,102.0,13.4,1505.2,328.9,-0.8,1.8,2470.634,13.28,0.064,109.0
2022-01-14T02:13:03,42.805,6.029,0.049,-0.009,0.003,103.0,102.0,101.0,13.4,1505.2,324.7,-0.8,1.8,2470.586,13.28,0.049,100.4
2022-01-14T02:16:03,42.805,6.029,0.051,-0.009,0.016,103.0,102.0,101.0,13.4,1505.2,329.0,-0.7,1.9,2470.613,13.28,0.051,100.0
2022-01-14T02:19:03,42.805,6.029,0.05,-0.04,0.006,103.0,103.0,101.0,13.4,1505.2,332.2,-0.8,1.8,2470.601,13.28,0.064,128.7
2022-01-14T02:22:03,42.805,6.029,0.063,-0.037,0.018,103.0,103.0,101.0,13.4,1505.2,330.2,-0.8,1.8,2470.58,13.28,0.073,120.4
2022-01-14T02:25:03,42.805,6.029,0.059,-0.035,0.002,103.0,103.0,101.0,13.4,1505.2,326.1,-0.7,1.8,2470.588,13.28,0.068,120.7
2022-01-14T02:28:03,42.805,6.029,0.06,-0.018,-0.012,104.0,102.0,101.0,13.4,1505.2,331.4,-0.8,1.8,2470.603,13.28,0.062,106.7
2022-01-14T02:31:03,42.805,6.029,0.072,-0.041,-0.004,104.0,102.0,101.0,13.4,1505.2,326.8,-0.8,1.8,2470.601,13.28,0.082,119.7
2022-01-14T02:34:03,42.805,6.029,0.054,-0.004,-0.002,102.0,102.0,102.0,13.3,1505.2,326.8,-0.8,1.9,2470.617,13.28,0.054,94.2
2022-01-14T02:37:03,42.805,6.029,0.078,-0.029,-0.008,102.0,103.0,101.0,13.4,1505.2,325.3,-0.7,1.8,2470.62,13.28,0.083,110.4
2022-01-14T02:40:03,42.805,6.029,0.073,-0.027,0.001,104.0,102.0,102.0,13.4,1505.2,332.2,-0.8,1.8,2470.619,13.28,0.077,110.3
2022-01-14T02:43:03,42.805,6.029,0.079,-0.017,0.001,103.0,102.0,101.0,13.3,1505.2,329.2,-0.7,1.8,2470.6,13.28,0.08,102.1
2022-01-14T02:46:03,42.805,6.029,0.052,-0.03,-0.005,104.0,102.0,102.0,13.3,1505.2,327.6,-0.8,1.8,2470.595,13.28,0.06,120.0
2022-01-14T02:49:03,42.805,6.029,0.058,-0.04,0.028,104.0,103.0,102.0,13.4,1505.2,331.5,-0.7,1.8,2470.582,13.28,0.07,124.6
2022-01-14T02:52:03,42.805,6.029,0.074,-0.025,0.0,102.0,103.0,102.0,13.4,1505.2,330.7,-0.8,1.8,2470.579,13.28,0.078,108.7
2022-01-14T02:55:03,42.805,6.029,0.075,-0.034,-0.02,103.0,102.0,101.0,13.4,1505.2,330.9,-0.7,1.8,2470.536,13.28,0.082,114.4
2022-01-14T02:58:03,42.805,6.029,0.067,-0.037,-0.003,105.0,101.0,102.0,13.4,1505.2,328.5,-0.7,1.8,2470.551,13.28,0.076,118.9
2022-01-14T03:04:03,42.805,6.029,0.057,-0.026,-0.007,103.0,104.0,101.0,13.4,1505.2,331.8,-0.8,1.8,2470.61,13.28,0.062,114.5
2022-01-14T03:07:03,42.805,6.029,0.072,-0.013,0.008,104.0,105.0,101.0,13.4,1505.2,324.3,-0.7,1.8,2470.595,13.28,0.073,100.2
2022-01-14T03:10:03,42.805,6.029,0.094,-0.013,0.05,103.0,104.0,102.0,13.4,1505.2,324.1,-0.8,1.8,2470.569,13.28,0.094,97.9
2022-01-14T03:13:03,42.805,6.029,0.074,-0.027,-0.009,104.0,103.0,102.0,13.4,1505.2,328.4,-0.8,1.8,2470.537,13.28,0.078,110.0
2022-01-14T03:16:03,42.805,6.029,0.045,-0.035,-0.015,104.0,103.0,101.0,13.3,1505.2,327.5,-0.8,1.8,2470.56,13.28,0.057,127.9
2022-01-14T03:19:03,42.805,6.029,0.057,-0.019,-0.018,103.0,102.0,102.0,13.3,1505.2,329.1,-0.7,1.8,2470.565,13.28,0.06,108.4
2022-01-14T03:22:03,42.805,6.029,0.041,-0.027,-0.022,105.0,104.0,102.0,13.3,1505.2,325.8,-0.8,1.9,2470.595,13.28,0.049,123.4
2022-01-14T03:25:03,42.805,6.029,0.073,-0.026,0.028,104.0,104.0,101.0,13.3,1505.2,329.9,-0.8,1.8,2470.57,13.28,0.077,109.6
2022-01-14T03:28:03,42.805,6.029,0.073,-0.03,-0.002,104.0,104.0,101.0,13.3,1505.2,324.4,-0.8,1.8,2470.576,13.28,0.078,112.3
2022-01-14T03:31:03,42.805,6.029,0.069,-0.029,0.027,104.0,104.0,102.0,13.4,1505.2,324.5,-0.7,1.8,2470.582,13.28,0.074,112.8
2022-01-14T03:34:03,42.805,6.029,0.065,-0.03,0.021,103.0,105.0,102.0,13.3,1505.2,327.1,-0.7,1.8,2470.576,13.28,0.071,114.8
2022-01-14T03:37:03,42.805,6.029,0.049,-0.043,-0.033,104.0,103.0,102.0,13.4,1505.2,328.8,-0.7,1.8,2470.573,13.28,0.065,131.3
2022-01-14T03:40:03,42.805,6.029,0.071,-0.037,0.036,104.0,104.0,102.0,13.3,1505.2,331.9,-0.7,1.8,2470.601,13.28,0.08,117.5
2022-01-14T03:43:03,42.805,6.029,0.06,-0.013,0.02,105.0,104.0,102.0,13.4,1505.2,325.6,-0.7,1.8,2470.61,13.28,0.061,102.2
2022-01-14T03:46:03,42.805,6.029,0.063,-0.011,-0.025,104.0,104.0,102.0,13.4,1505.2,325.5,-0.8,1.8,2470.581,13.28,0.063,99.9
2022-01-14T03:49:03,42.805,6.029,0.066,-0.021,0.01,105.0,103.0,102.0,13.4,1505.2,331.4,-0.8,1.8,2470.617,13.28,0.069,107.6
2022-01-14T03:52:03,42.805,6.029,0.08,-0.037,0.012,104.0,103.0,101.0,13.3,1505.2,328.9,-0.7,1.8,2470.589,13.28,0.088,114.8
2022-01-14T04:04:03,42.805,6.029,0.059,-0.041,0.015,104.0,103.0,102.0,13.4,1505.2,329.4,-0.8,1.8,2470.615,13.28,0.071,124.8
2022-01-14T04:07:03,42.805,6.029,0.055,-0.037,-0.046,104.0,103.0,101.0,13.4,1505.2,325.8,-0.8,1.8,2470.595,13.28,0.066,123.9
2022-01-14T04:10:03,42.805,6.029,0.052,-0.036,-0.005,105.0,104.0,102.0,13.4,1505.2,327.0,-0.8,1.8,2470.609,13.28,0.063,124.7
2022-01-14T04:13:03,42.805,6.029,0.075,-0.033,0.012,104.0,103.0,101.0,13.4,1505.2,327.8,-0.7,1.8,2470.609,13.28,0.081,113.7
2022-01-14T04:16:03,42.805,6.029,0.057,-0.042,-0.005,103.0,103.0,102.0,13.4,1505.2,326.5,-0.7,1.8,2470.587,13.28,0.07,126.4
2022-01-14T04:19:03,42.805,6.029,0.074,-0.02,-0.01,102.0,104.0,101.0,13.4,1505.2,327.8,-0.8,1.8,2470.623,13.28,0.076,105.1
2022-01-14T04:22:03,42.805,6.029,0.074,-0.037,-0.009,103.0,103.0,101.0,13.4,1505.2,324.3,-0.7,1.8,2470.569,13.28,0.082,116.6
2022-01-14T04:25:03,42.805,6.029,0.042,-0.042,-0.021,105.0,103.0,101.0,13.4,1505.2,327.5,-0.7,1.8,2470.622,13.28,0.059,135.0
2022-01-14T04:28:03,42.805,6.029,0.051,-0.03,0.0,103.0,104.0,102.0,13.4,1505.2,326.6,-0.8,1.8,2470.646,13.28,0.059,120.5
2022-01-14T04:31:03,42.805,6.029,0.064,-0.045,0.024,104.0,102.0,102.0,13.4,1505.2,328.9,-0.8,1.8,2470.648,13.28,0.078,125.1
2022-01-14T04:34:03,42.805,6.029,0.065,-0.037,-0.001,103.0,103.0,102.0,13.4,1505.2,329.4,-0.8,1.9,2470.686,13.28,0.074,119.7
2022-01-14T04:37:03,42.805,6.029,0.042,-0.044,0.026,104.0,103.0,101.0,13.4,1505.2,327.7,-0.8,1.8,2470.658,13.28,0.06,136.3
2022-01-14T04:40:03,42.805,6.029,0.057,-0.025,0.023,103.0,103.0,101.0,13.3,1505.2,325.9,-0.8,1.8,2470.671,13.28,0.062,113.7
2022-01-14T04:43:03,42.805,6.029,0.046,-0.027,0.006,104.0,104.0,101.0,13.3,1505.2,329.6,-0.8,1.8,2470.663,13.28,0.053,120.4
2022-01-14T04:46:03,42.805,6.029,0.04,-0.031,-0.017,104.0,102.0,102.0,13.4,1505.2,324.1,-0.8,1.8,2470.606,13.28,0.05,127.8
2022-01-14T04:49:03,42.805,6.029,0.047,-0.008,0.015,103.0,103.0,102.0,13.4,1505.2,324.3,-0.8,1.8,2470.686,13.28,0.047,99.7
2022-01-14T04:52:03,42.805,6.029,0.045,-0.026,0.001,104.0,103.0,102.0,13.3,1505.2,327.5,-0.8,1.8,2470.708,13.28,0.051,120.0
2022-01-14T04:55:03,42.805,6.029,0.029,-0.021,0.032,103.0,103.0,101.0,13.4,1505.2,331.9,-0.8,1.8,2470.692,13.28,0.035,125.9
2022-01-14T04:58:03,42.805,6.029,0.061,-0.029,0.016,103.0,104.0,101.0,13.4,1505.2,326.0,-0.7,1.8,2470.698,13.28,0.067,115.4
2022-01-14T05:04:03,42.805,6.029,0.076,-0.027,-0.01,103.0,103.0,102.0,13.4,1505.2,327.5,-0.8,1.8,2470.668,13.28,0.08,109.6
2022-01-14T05:07:03,42.805,6.029,0.05,-0.038,-0.009,104.0,105.0,101.0,13.3,1505.2,331.3,-0.8,1.8,2470.668,13.28,0.062,127.2
2022-01-14T05:10:03,42.805,6.029,0.054,-0.033,-0.012,103.0,103.0,102.0,13.4,1505.2,332.0,-0.8,1.8,2470.649,13.28,0.063,121.4
2022-01-14T05:13:03,42.805,6.029,0.05,-0.018,-0.029,104.0,103.0,102.0,13.4,1505.2,330.1,-0.8,1.8,2470.635,13.28,0.053,109.8
2022-01-14T05:16:03,42.805,6.029,0.048,-0.03,-0.008,103.0,103.0,101.0,13.4,1505.2,329.8,-0.7,1.8,2470.678,13.28,0.056,122.0
2022-01-14T05:19:03,42.805,6.029,0.04,-0.02,-0.021,103.0,105.0,102.0,13.3,1505.2,331.8,-0.8,1.8,2470.687,13.28,0.044,116.6
2022-01-14T05:22:03,42.805,6.029,0.06,-0.021,0.018,103.0,103.0,101.0,13.4,1505.2,329.6,-0.8,1.8,2470.656,13.28,0.063,109.3
2022-01-14T05:25:03,42.805,6.029,0.058,-0.039,0.002,104.0,103.0,102.0,13.4,1505.2,331.6,-0.8,1.8,2470.6,13.28,0.069,123.9
2022-01-14T05:28:03,42.805,6.029,0.05,-0.034,0.0,103.0,104.0,102.0,13.3,1505.2,330.2,-0.8,1.8,2470.662,13.28,0.06,124.2
2022-01-14T05:31:03,42.805,6.029,0.044,-0.044,-0.013,103.0,103.0,102.0,13.4,1505.2,327.5,-0.8,1.8,2470.651,13.28,0.062,135.0
2022-01-14T05:34:03,42.805,6.029,0.024,-0.018,-0.028,104.0,104.0,102.0,13.4,1505.2,331.1,-0.8,1.8,2470.615,13.28,0.03,126.9
2022-01-14T05:37:03,42.805,6.029,0.05,-0.01,0.016,104.0,103.0,101.0,13.4,1505.2,330.6,-0.8,1.8,2470.62,13.28,0.05,101.3
2022-01-14T05:40:03,42.805,6.029,0.035,-0.004,-0.009,103.0,104.0,102.0,13.4,1505.2,325.4,-0.8,1.9,2470.681,13.28,0.035,96.5
2022-01-14T05:43:03,42.805,6.029,0.055,-0.02,0.024,104.0,104.0,103.0,13.4,1505.2,329.6,-0.7,1.8,2470.625,13.28,0.058,110.0
2022-01-14T05:46:03,42.805,6.029,0.064,-0.021,-0.002,105.0,104.0,102.0,13.3,1505.2,329.0,-0.8,1.8,2470.623,13.28,0.067,108.2
2022-01-14T05:49:03,42.805,6.029,0.028,-0.021,0.019,103.0,104.0,102.0,13.4,1505.2,330.9,-0.8,1.8,2470.623,13.28,0.035,126.9
2022-01-14T05:52:03,42.805,6.029,0.047,-0.024,0.02,103.0,104.0,102.0,13.4,1505.2,328.2,-0.8,1.8,2470.64,13.28,0.052,117.0
2022-01-14T05:55:03,42.805,6.029,0.08,-0.011,0.026,104.0,103.0,102.0,13.3,1505.2,326.9,-0.8,1.8,2470.624,13.28,0.08,97.8
2022-01-14T05:58:03,42.805,6.029,0.058,-0.034,0.0,105.0,104.0,102.0,13.3,1505.2,329.8,-0.8,1.8,2470.612,13.28,0.067,120.4
2022-01-14T06:04:03,42.805,6.029,0.056,-0.049,-0.001,103.0,103.0,101.0,13.3,1505.2,329.4,-0.8,1.8,2470.63,13.28,0.074,131.2
2022-01-14T06:07:03,42.805,6.029,0.064,-0.039,0.002,104.0,103.0,102.0,13.4,1505.2,330.6,-0.8,1.8,2470.636,13.28,0.074,121.4
2022-01-14T06:10:03,42.805,6.029,0.034,-0.021,-0.009,103.0,104.0,103.0,13.3,1505.2,325.0,-0.8,1.8,2470.676,13.28,0.039,121.7
2022-01-14T06:13:03,42.805,6.029,0.045,-0.012,-0.008,103.0,104.0,102.0,13.4,1505.2,329.2,-0.7,1.8,2470.652,13.28,0.046,104.9
2022-01-14T06:16:03,42.805,6.029,0.052,-0.033,0.003,104.0,104.0,103.0,13.3,1505.2,330.3,-0.8,1.8,2470.651,13.28,0.061,122.4
2022-01-14T06:19:03,42.805,6.029,0.065,-0.021,0.011,104.0,103.0,103.0,13.4,1505.2,324.2,-0.7,1.8,2470.669,13.28,0.068,107.9
2022-01-14T06:22:03,42.805,6.029,0.071,-0.022,0.012,104.0,104.0,102.0,13.4,1505.2,326.3,-0.8,1.8,2470.655,13.28,0.074,107.2
2022-01-14T06:25:03,42.805,6.029,0.075,-0.026,-0.036,103.0,104.0,102.0,13.3,1505.2,325.8,-0.8,1.8,2470.682,13.28,0.079,109.1
2022-01-14T06:28:03,42.805,6.029,0.044,-0.013,0.007,104.0,104.0,101.0,13.3,1505.2,326.4,-0.8,1.8,2470.669,13.28,0.045,106.5
2022-01-14T06:31:03,42.805,6.029,0.041,-0.018,-0.021,104.0,103.0,102.0,13.3,1505.2,329.5,-0.8,1.8,2470.678,13.28,0.044,113.7
2022-01-14T06:34:03,42.805,6.029,0.054,-0.035,0.003,103.0,103.0,101.0,13.4,1505.2,329.6,-0.8,1.8,2470.67,13.28,0.064,123.0
2022-01-14T06:37:03,42.805,6.029,0.067,-0.037,0.031,104.0,104.0,102.0,13.4,1505.2,329.2,-0.7,1.8,2470.679,13.28,0.076,118.9
2022-01-14T06:40:03,42.805,6.029,0.049,-0.032,-0.01,104.0,104.0,103.0,13.3,1505.2,328.8,-0.7,1.8,2470.663,13.28,0.058,123.2
2022-01-14T06:43:03,42.805,6.029,0.05,-0.018,0.002,104.0,104.0,102.0,13.4,1505.2,326.6,-0.7,1.8,2470.697,13.28,0.053,109.8
2022-01-14T06:46:03,42.805,6.029,0.037,-0.025,-0.017,104.0,103.0,102.0,13.3,1505.2,329.4,-0.8,1.8,2470.701,13.28,0.044,124.0
2022-01-14T06:49:03,42.805,6.029,0.062,-0.023,0.023,104.0,104.0,102.0,13.3,1505.2,325.6,-0.8,1.8,2470.678,13.28,0.066,110.3
2022-01-14T06:52:03,42.805,6.029,0.043,-0.037,-0.006,103.0,103.0,102.0,13.4,1505.2,331.9,-0.8,1.8,2470.639,13.28,0.056,130.7
2022-01-14T06:55:03,42.805,6.029,0.054,-0.018,-0.015,103.0,104.0,102.0,13.4,1505.2,325.8,-0.8,1.8,2470.663,13.28,0.056,108.4
2022-01-14T06:58:03,42.805,6.029,0.04,-0.008,0.006,104.0,104.0,101.0,13.3,1505.2,329.8,-0.8,1.8,2470.679,13.28,0.04,101.3
2022-01-14T07:04:03,42.805,6.029,0.046,-0.022,-0.017,103.0,103.0,102.0,13.3,1505.2,331.2,-0.7,1.8,2470.702,13.28,0.05,115.6
2022-01-14T07:07:03,42.805,6.029,0.061,-0.023,-0.003,105.0,104.0,102.0,13.4,1505.2,323.8,-0.8,1.8,2470.646,13.28,0.065,110.7
2022-01-14T07:10:03,42.805,6.029,0.048,-0.03,0.008,104.0,103.0,102.0,13.4,1505.2,325.7,-0.8,1.8,2470.68,13.28,0.056,122.0
2022-01-14T07:13:03,42.805,6.029,0.039,-0.024,-0.032,104.0,103.0,102.0,13.4,1505.2,329.1,-0.7,1.8,2470.684,13.28,0.045,121.6
2022-01-14T07:16:03,42.805,6.029,0.063,-0.028,-0.018,105.0,103.0,102.0,13.4,1505.2,326.9,-0.7,1.8,2470.677,13.28,0.068,114.0
2022-01-14T07:19:03,42.805,6.029,0.059,-0.025,-0.013,102.0,105.0,102.0,13.3,1505.2,327.3,-0.7,1.8,2470.702,13.28,0.064,113.0
2022-01-14T07:22:03,42.805,6.029,0.058,-0.019,-0.015,104.0,103.0,101.0,13.3,1505.2,326.5,-0.7,1.9,2470.706,13.28,0.061,108.1
2022-01-14T07:25:03,42.805,6.029,0.043,-0.015,-0.023,104.0,104.0,101.0,13.4,1505.2,326.9,-0.8,1.8,2470.73,13.28,0.045,109.2
2022-01-14T07:28:03,42.805,6.029,0.034,0.0,-0.01,103.0,104.0,102.0,13.4,1505.2,331.6,-0.8,1.8,2470.72,13.28,0.034,90.0
2022-01-14T07:31:03,42.805,6.029,0.063,-0.036,-0.008,103.0,103.0,102.0,13.4,1505.2,325.5,-0.8,1.8,2470.721,13.28,0.072,119.7
2022-01-14T07:34:03,42.805,6.029,0.06,-0.017,0.013,104.0,103.0,102.0,13.4,1505.2,330.2,-0.7,1.8,2470.685,13.28,0.062,105.8
2022-01-14T07:37:03,42.805,6.029,0.044,-0.035,-0.006,104.0,103.0,102.0,13.4,1505.2,327.0,-0.8,1.9,2470.647,13.28,0.056,128.5
2022-01-14T07:40:03,42.805,6.029,0.05,-0.028,-0.017,103.0,104.0,103.0,13.4,1505.2,327.0,-0.7,1.8,2470.708,13.28,0.057,119.3
2022-01-14T07:43:03,42.805,6.029,0.045,-0.022,0.012,104.0,103.0,102.0,13.4,1505.2,328.6,-0.8,1.8,2470.701,13.28,0.05,116.1
2022-01-14T07:46:03,42.805,6.029,0.046,-0.027,-0.021,104.0,103.0,102.0,13.4,1505.2,327.2,-0.7,1.8,2470.708,13.28,0.053,120.4
2022-01-14T07:49:03,42.805,6.029,0.041,-0.036,-0.024,105.0,103.0,102.0,13.4,1505.2,327.5,-0.8,1.8,2470.681,13.28,0.054,131.3
2022-01-14T07:52:03,42.805,6.029,0.062,-0.038,-0.012,105.0,102.0,102.0,13.3,1505.2,330.2,-0.8,1.8,2470.709,13.28,0.072,121.5
2022-01-14T07:55:03,42.805,6.029,0.028,-0.022,-0.017,105.0,102.0,102.0,13.3,1505.2,331.2,-0.8,1.9,2470.708,13.28,0.035,128.2
2022-01-14T07:58:03,42.805,6.029,0.045,-0.015,-0.003,103.0,102.0,102.0,13.4,1505.2,326.2,-0.8,1.8,2470.715,13.28,0.047,108.4
2022-01-14T08:04:03,42.805,6.029,0.036,-0.026,-0.019,105.0,104.0,102.0,13.4,1505.2,327.8,-0.7,1.8,2470.734,13.28,0.044,125.8
2022-01-14T08:07:03,42.805,6.029,0.061,-0.029,-0.019,104.0,104.0,102.0,13.4,1505.2,329.5,-0.8,1.8,2470.724,13.28,0.067,115.4
2022-01-14T08:10:03,42.805,6.029,0.036,-0.022,-0.01,103.0,104.0,102.0,13.4,1505.2,329.5,-0.7,1.8,2470.677,13.28,0.042,121.4
2022-01-14T08:13:03,42.805,6.029,0.048,-0.007,-0.014,103.0,104.0,102.0,13.3,1505.2,326.0,-0.8,1.8,2470.719,13.28,0.048,98.3
2022-01-14T08:16:03,42.805,6.029,0.044,-0.018,-0.015,103.0,103.0,103.0,13.4,1505.2,326.4,-0.7,1.8,2470.713,13.28,0.047,112.2
2022-01-14T08:19:03,42.805,6.029,0.063,-0.022,0.002,104.0,104.0,103.0,13.3,1505.2,328.3,-0.7,1.8,2470.738,13.28,0.066,109.2
2022-01-14T08:22:03,42.805,6.029,0.048,-0.007,0.007,103.0,104.0,102.0,13.3,1505.2,329.3,-0.7,1.8,2470.688,13.28,0.048,98.3
2022-01-14T08:25:03,42.805,6.029,0.065,-0.019,0.001,103.0,104.0,102.0,13.3,1505.2,326.6,-0.8,1.8,2470.695,13.28,0.067,106.3
2022-01-14T08:28:03,42.805,6.029,0.03,-0.02,-0.02,104.0,104.0,102.0,13.4,1505.2,329.5,-0.8,1.8,2470.673,13.28,0.036,123.7
2022-01-14T08:31:03,42.805,6.029,0.055,-0.025,-0.019,104.0,104.0,102.0,13.4,1505.2,329.2,-0.7,1.8,2470.689,13.28,0.06,114.4
2022-01-14T08:34:03,42.805,6.029,0.047,-0.017,-0.005,103.0,104.0,103.0,13.4,1505.2,324.9,-0.8,1.8,2470.677,13.28,0.049,109.9
2022-01-14T08:37:03,42.805,6.029,0.045,-0.017,-0.016,104.0,104.0,101.0,13.4,1505.2,326.6,-0.7,1.8,2470.64,13.28,0.048,110.7
2022-01-14T08:40:03,42.805,6.029,0.044,0.004,-0.01,103.0,105.0,102.0,13.4,1505.2,325.3,-0.8,1.8,2470.643,13.28,0.044,84.8
2022-01-14T08:43:03,42.805,6.029,0.052,-0.024,-0.006,104.0,103.0,103.0,13.3,1505.2,331.6,-0.7,1.8,2470.651,13.28,0.057,114.8
2022-01-14T08:46:03,42.805,6.029,0.056,-0.03,0.003,105.0,104.0,102.0,13.3,1505.2,323.7,-0.8,1.8,2470.658,13.28,0.063,118.2
2022-01-14T08:49:03,42.805,6.029,0.048,-0.039,-0.018,104.0,104.0,102.0,13.4,1505.2,330.4,-0.7,1.8,2470.632,13.28,0.061,129.1
2022-01-14T08:52:03,42.805,6.029,0.051,-0.026,-0.041,105.0,104.0,102.0,13.4,1505.2,326.8,-0.8,1.9,2470.646,13.28,0.057,117.0
2022-01-14T08:55:03,42.805,6.029,0.06,-0.015,-0.02,103.0,103.0,101.0,13.4,1505.2,329.9,-0.8,1.8,2470.636,13.28,0.061,104.0
2022-01-14T08:58:03,42.805,6.029,0.056,-0.035,-0.018,104.0,102.0,102.0,13.3,1505.2,329.5,-0.8,1.8,2470.63,13.28,0.066,122.0
2022-01-14T09:04:03,42.805,6.029,0.039,-0.036,-0.018,105.0,103.0,102.0,13.3,1505.2,326.5,-0.8,1.8,2470.609,13.28,0.053,132.7
2022-01-14T09:07:03,42.805,6.029,0.056,-0.036,-0.021,104.0,103.0,102.0,13.4,1505.2,325.1,-0.8,1.8,2470.625,13.28,0.066,122.7
2022-01-14T09:10:03,42.805,6.029,0.05,-0.001,-0.005,104.0,103.0,102.0,13.4,1505.2,325.9,-0.8,1.8,2470.661,13.28,0.05,91.1
2022-01-14T09:13:03,42.805,6.029,0.07,-0.023,0.002,104.0,104.0,102.0,13.4,1505.2,327.9,-0.8,1.8,2470.652,13.28,0.073,108.2
2022-01-14T09:16:03,42.805,6.029,0.048,-0.017,0.003,105.0,102.0,102.0,13.4,1505.2,330.0,-0.8,1.8,2470.606,13.28,0.05,109.5
2022-01-14T09:19:03,42.805,6.029,0.056,-0.04,-0.045,104.0,104.0,102.0,13.4,1505.2,327.0,-0.8,1.8,2470.672,13.28,0.068,125.5
2022-01-14T09:22:03,42.805,6.029,0.053,-0.021,0.014,105.0,103.0,103.0,13.4,1505.2,329.9,-0.8,1.8,2470.633,13.28,0.057,111.6
2022-01-14T09:25:03,42.805,6.029,0.02,-0.041,-0.022,103.0,103.0,103.0,13.4,1505.2,329.8,-0.7,1.8,2470.625,13.28,0.045,154.0
2022-01-14T09:28:03,42.805,6.029,0.034,-0.021,-0.022,104.0,104.0,103.0,13.4,1505.2,327.6,-0.7,1.8,2470.604,13.28,0.039,121.7
2022-01-14T09:31:03,42.805,6.029,0.05,-0.032,0.002,104.0,103.0,102.0,13.4,1505.2,328.7,-0.8,1.8,2470.608,13.28,0.059,122.6
2022-01-14T09:34:03,42.805,6.029,0.011,-0.03,0.013,104.0,105.0,102.0,13.4,1505.2,327.3,-0.8,1.8,2470.635,13.28,0.031,159.9
2022-01-14T09:37:03,42.805,6.029,0.048,-0.025,0.002,104.0,105.0,102.0,13.4,1505.2,328.3,-0.8,1.8,2470.623,13.28,0.054,117.5
2022-01-14T09:40:03,42.805,6.029,0.059,-0.021,-0.052,104.0,103.0,102.0,13.4,1505.2,326.2,-0.8,1.8,2470.63,13.28,0.062,109.6
2022-01-14T09:43:03,42.805,6.029,0.047,-0.009,-0.003,103.0,105.0,102.0,13.4,1505.2,325.9,-0.8,1.8,2470.67,13.28,0.047,100.8
2022-01-14T09:46:03,42.805,6.029,0.05,-0.024,-0.01,105.0,103.0,102.0,13.3,1505.2,325.4,-0.7,1.8,2470.594,13.28,0.055,115.6
2022-01-14T09:49:03,42.805,6.029,0.045,-0.018,0.009,105.0,105.0,102.0,13.4,1505.2,331.3,-0.8,1.8,2470.62,13.28,0.048,111.8
2022-01-14T09:52:03,42.805,6.029,0.048,-0.05,-0.052,104.0,103.0,102.0,13.4,1505.2,330.8,-0.8,1.8,2470.603,13.28,0.069,136.2
2022-01-14T09:55:03,42.805,6.029,0.04,-0.034,-0.019,104.0,104.0,103.0,13.4,1505.2,332.2,-0.7,1.8,2470.596,13.28,0.052,130.4
2022-01-14T09:58:03,42.805,6.029,0.033,-0.008,-0.036,104.0,104.0,102.0,13.4,1505.2,326.3,-0.8,1.8,2470.57,13.28,0.033,103.6
2022-01-14T10:04:03,42.805,6.029,0.04,-0.046,-0.018,104.0,104.0,102.0,13.4,1505.2,329.5,-0.8,1.8,2470.6,13.28,0.06,139.0
2022-01-14T10:07:03,42.805,6.029,0.013,-0.015,-0.029,104.0,102.0,102.0,13.4,1505.2,328.9,-0.8,1.8,2470.584,13.28,0.019,139.1